Location: Wapato
(46.4478°N, 120.4212°W)
Time: 21:58:55
(UTC+00:00)

Vanguard 1 Rocket - Pass Details

Date: 12 May 2026
Orbit: 656 x 4211 km, 34.3° (Epoch: 2 June)

Event Time Altitude Azimuth Distance (km) Brightness Sun altitude
Rises 00:12:46 0° 234° (SW) 4,661 11.9 31.0°
Reaches altitude 10° 00:15:25 10° 228° (SW) 4,021 11.6 30.6°
Maximum altitude 00:26:14 47° 158° (SSE) 3,217 10.4 28.7°
Drops below altitude 10° 00:45:42 10° 94° (E) 6,960 11.4 25.4°
Sets 00:52:09 0° 90° (E) 8,281 11.7 24.3°
